DateTime,F1_A11,F1_S11,BsB_S11,BsG_S11,BsR_S11,BbsB_S11,BbsG_S11,BbsR_S11,BaB_A11,BaG_A11,BaR_A11,T_S11,U_S11,P_S11,T1_A11
2016-07-01T00:00:00Z,0000388,20000608,,,,,,,,,,26.3,05.1,0670.3,34.6
2016-07-01T00:01:00Z,0000388,20000608,,,,,,,,,,26.3,05.1,0670.3,34.6
2016-07-01T00:01:49Z,0000388,21000608,,,,,,,,,,,,,34.6
2016-07-01T00:03:00Z,0000388,61000608,,,,,,,,,,,,6372.8,34.6
2016-07-01T00:04:00Z,0000388,41000608,,,,,,,,,,26.4,05.1,1146.3,34.6
2016-07-01T00:05:00Z,0000388,00000608,,,,,,,,,,26.4,05.1,0671.1,34.6
2016-07-01T00:06:00Z,0000388,00000608,,,,,,,,,,26.4,05.1,0671.0,34.6
2016-07-01T00:07:00Z,0000388,00000608,,,,,,,,,,26.3,05.0,0671.0,34.6
2016-07-01T00:08:00Z,0000388,00000608,,,,,,,,,,26.4,05.0,0671.1,34.6
2016-07-01T00:09:00Z,0000388,00000608,,,,,,,,,,26.4,05.0,0671.0,34.6
2016-07-01T00:10:00Z,0000388,00000608,,,,,,,,,,26.3,04.9,0670.9,34.6
2016-07-01T00:11:00Z,0000388,00000608,,,,,,,,,,26.3,04.9,0671.0,34.6
2016-07-01T00:12:00Z,0000388,00000608,,,,,,,,,,26.3,04.9,0671.1,34.6
2016-07-01T00:13:00Z,0000388,00000608,,,,,,,,,,26.3,04.9,0671.0,34.6
2016-07-01T00:14:00Z,0000388,00000608,,,,,,,,,,26.3,04.8,0671.1,34.6
2016-07-01T00:15:00Z,0000388,00000608,,,,,,,,,,26.3,04.9,0671.2,34.6
2016-07-01T00:16:00Z,0000388,00000608,,,,,,,,,,26.3,04.9,0671.2,34.6
2016-07-01T00:17:00Z,0000388,00000608,,,,,,,,,,26.4,04.9,0671.2,34.6
2016-07-01T00:18:00Z,0000388,00000608,,,,,,,,,,26.4,04.9,0671.1,34.6
2016-07-01T00:19:00Z,0000388,00000608,,,,,,,,,,26.4,04.9,0671.2,34.6
2016-07-01T00:20:00Z,0000388,00000608,,,,,,,,,,26.4,04.8,0671.2,34.6
2016-07-01T00:21:00Z,0000388,00000608,,,,,,,,,,26.4,04.9,0671.2,34.6
2016-07-01T00:22:00Z,0000388,00000608,,,,,,,,,,26.4,04.9,0671.2,34.6
2016-07-01T00:23:00Z,0000388,00000608,,,,,,,,,,26.3,04.8,0671.2,34.6
2016-07-01T00:24:00Z,0000388,00000608,,,,,,,,,,26.4,04.8,0671.2,34.6
2016-07-01T00:25:00Z,0000388,00000608,,,,,,,,,,26.3,04.8,0671.2,34.6
2016-07-01T00:26:00Z,0000388,00000608,,,,,,,,,,26.4,04.8,0671.1,34.6
2016-07-01T00:27:00Z,0000388,00000608,,,,,,,,,,26.4,04.8,0671.1,34.6
2016-07-01T00:28:00Z,0000388,00000608,,,,,,,,,,26.4,04.7,0671.2,34.6
2016-07-01T00:29:00Z,0000388,00000608,,,,,,,,,,26.3,04.7,0671.2,34.6
2016-07-01T00:30:00Z,0000388,00000608,,,,,,,,,,26.3,04.7,0671.3,34.6
2016-07-01T00:31:00Z,0000388,00000608,,,,,,,,,,26.4,04.6,0671.3,34.6
2016-07-01T00:32:00Z,0000388,00000608,,,,,,,,,,26.4,04.7,0671.2,34.6
2016-07-01T00:33:00Z,0000388,00000608,,,,,,,,,,26.4,04.7,0671.2,34.6
2016-07-01T00:34:00Z,0000388,00000608,,,,,,,,,,26.5,04.8,0671.2,34.6
2016-07-01T00:35:00Z,0000388,00000608,,,,,,,,,,26.5,04.7,0671.3,34.6
2016-07-01T00:36:00Z,0000388,00000608,,,,,,,,,,26.5,04.8,0671.3,34.6
2016-07-01T00:37:00Z,0000388,00000608,,,,,,,,,,26.5,04.7,0671.4,34.6
2016-07-01T00:38:00Z,0000388,00000608,,,,,,,,,,26.5,04.8,0671.4,34.6
2016-07-01T00:39:00Z,0000388,00000608,,,,,,,,,,26.4,04.8,0671.4,34.6
2016-07-01T00:40:00Z,0000388,00000608,,,,,,,,,,26.4,04.7,0671.4,34.6
2016-07-01T00:41:00Z,0000388,00000608,,,,,,,,,,26.4,04.6,0671.4,34.6
2016-07-01T00:42:00Z,0000388,00000608,,,,,,,,,,26.4,04.7,0671.4,34.6
2016-07-01T00:43:00Z,0000388,00000608,,,,,,,,,,26.4,04.7,0671.4,34.6
2016-07-01T00:44:00Z,0000388,00000608,,,,,,,,,,26.4,04.7,0671.4,34.6
2016-07-01T00:45:00Z,0000388,00000608,,,,,,,,,,26.4,04.7,0671.4,34.6
2016-07-01T00:46:00Z,0000388,00000608,,,,,,,,,,26.4,04.7,0671.4,34.6
2016-07-01T00:47:00Z,0000388,00000608,,,,,,,,,,26.4,04.6,0671.5,34.6
2016-07-01T00:48:00Z,0000388,00000608,,,,,,,,,,26.4,04.5,0671.4,34.6
2016-07-01T00:49:00Z,0000388,00000608,,,,,,,,,,26.4,04.5,0671.4,34.6
2016-07-01T00:50:00Z,0000388,00000608,,,,,,,,,,26.4,04.5,0671.5,34.6
2016-07-01T00:51:00Z,0000388,00000608,,,,,,,,,,26.4,04.4,0671.4,34.6
2016-07-01T00:52:00Z,0000388,00000608,,,,,,,,,,26.4,04.4,0671.4,34.6
2016-07-01T00:53:00Z,0000388,00000608,,,,,,,,,,26.5,04.4,0671.5,34.6
2016-07-01T00:54:00Z,0000388,00000608,,,,,,,,,,26.5,04.4,0671.5,34.6
2016-07-01T00:55:00Z,0000388,00000608,,,,,,,,,,26.5,04.4,0671.5,34.6
2016-07-01T00:56:00Z,0000388,00000608,,,,,,,,,,26.5,04.3,0671.5,34.6
2016-07-01T00:57:00Z,0000388,40000608,,,,,,,,,,,,0671.5,34.6
2016-07-01T00:58:00Z,0000388,60000608,,,,,,,,,,26.3,04.5,0670.6,34.6
2016-07-01T00:59:00Z,0000388,20000608,,,,,,,,,,26.3,04.5,0670.6,34.6
2016-07-01T01:00:00Z,0000388,20000608,,,,,,,,,,26.3,04.5,0670.6,34.6
2016-07-01T01:01:00Z,0000388,20000608,,,,,,,,,,26.3,04.3,0670.6,34.6
2016-07-01T01:02:00Z,0000388,20000608,,,,,,,,,,26.3,04.3,0670.6,34.6
2016-07-01T01:03:00Z,0000388,60000608,,,,,,,,,,26.3,04.3,0670.6,34.6
2016-07-01T01:04:00Z,0000388,40000608,0001.46,0000.54,0000.02,-000.14,0000.16,-000.22,0000.07,0000.04,0000.15,26.5,03.9,0671.5,34.6
2016-07-01T01:05:00Z,0000388,00000608,0001.89,0000.40,0000.51,0000.22,0000.38,0000.05,0002.25,0002.14,0001.40,26.5,03.8,0671.5,34.6
2016-07-01T01:06:00Z,0000388,00000608,0008.96,0005.67,0003.77,0001.28,0001.13,0001.04,0031.17,0027.24,0021.40,26.5,03.8,0671.5,34.6
2016-07-01T01:07:00Z,0000388,00000608,0014.88,0009.61,0005.85,0002.77,0001.90,0001.54,0057.46,0050.04,0039.67,26.5,03.8,0671.5,34.6
2016-07-01T01:08:00Z,0000388,00000608,0013.84,0010.12,0006.44,0002.00,0001.69,0001.04,0058.20,0051.46,0040.58,26.5,03.9,0671.5,34.6
2016-07-01T01:09:00Z,0000388,00000608,0012.52,0009.24,0005.30,0002.03,0001.57,0000.80,0050.30,0044.36,0034.87,26.4,03.9,0671.5,34.6
2016-07-01T01:10:00Z,0000388,00000608,0013.01,0009.28,0005.69,0002.41,0001.99,0001.18,0053.63,0047.23,0037.00,26.4,03.8,0671.5,34.6
2016-07-01T01:11:00Z,0000388,00000608,0008.31,0005.67,0003.40,0001.53,0000.82,0000.65,0034.97,0031.03,0024.78,26.5,03.7,0671.5,34.6
2016-07-01T01:12:00Z,0000388,00000608,0005.18,0002.55,0001.60,0000.60,0000.08,0000.05,0014.96,0012.87,0010.47,26.5,03.7,0671.5,34.6
2016-07-01T01:13:00Z,0000388,00000608,0001.98,0000.89,0000.52,-000.52,-000.03,0000.33,0002.89,0002.66,0001.84,26.4,03.7,0671.5,34.6
2016-07-01T01:14:00Z,0000388,00000608,0002.04,0000.21,0000.26,-000.44,0000.06,0000.06,0001.28,0001.15,0000.89,26.5,03.7,0671.5,34.6
2016-07-01T01:15:00Z,0000388,00000608,0001.06,0000.89,0000.38,-000.28,0000.28,0000.14,0000.49,0000.49,0000.26,26.5,03.6,0671.5,34.6
2016-07-01T01:16:00Z,0000388,00000608,0001.43,0000.56,0000.35,0000.27,0000.02,-000.25,0000.50,0000.55,0000.33,26.4,03.6,0671.5,34.6
2016-07-01T01:17:00Z,0000388,00000608,0001.47,0000.93,0000.29,0000.24,0000.06,-000.03,0000.52,0000.33,0000.44,26.4,03.7,0671.6,34.6
2016-07-01T01:18:00Z,0000388,00000608,0001.65,0000.82,0000.41,-000.17,0000.05,0000.22,0001.99,0001.64,0001.43,26.4,03.6,0671.6,34.6
2016-07-01T01:19:00Z,0000388,00000608,0005.68,0003.44,0002.14,0001.68,0000.14,0000.30,0017.69,0015.58,0012.06,26.4,03.7,0671.6,34.6
2016-07-01T01:20:00Z,0000388,00000608,0010.04,0006.64,0004.75,0001.79,0001.61,0000.77,0037.54,0033.08,0026.09,26.4,03.7,0671.5,34.6
2016-07-01T01:21:00Z,0000388,00000608,0012.67,0008.99,0005.72,0002.27,0001.69,0001.07,0050.18,0044.28,0035.09,26.4,03.8,0671.5,34.6
2016-07-01T01:22:00Z,0000388,00000608,0011.60,0007.83,0004.84,0002.41,0001.49,0000.72,0044.39,0039.20,0031.08,26.4,04.0,0671.5,34.6
2016-07-01T01:23:00Z,0000388,00000608,0012.36,0008.39,0005.46,0002.30,0001.18,0000.96,0040.93,0036.18,0028.43,26.4,04.0,0671.5,34.6
2016-07-01T01:24:00Z,0000388,00000608,0009.44,0006.11,0004.15,0001.64,0001.19,0000.60,0037.59,0033.06,0026.70,26.4,04.1,0671.5,34.6
2016-07-01T01:25:00Z,0000388,00000608,0002.91,0001.52,0001.12,0000.27,0000.69,0000.19,0006.83,0006.12,0004.29,26.4,04.1,0671.5,34.6
2016-07-01T01:26:00Z,0000388,00000608,0010.41,0007.08,0004.60,0002.28,0000.81,0000.98,0035.86,0031.35,0024.71,26.4,04.1,0671.5,34.6
2016-07-01T01:27:00Z,0000388,00000608,0012.15,0008.65,0005.39,0002.31,0001.44,0001.02,0048.55,0042.65,0033.72,26.4,04.0,0671.5,34.6
2016-07-01T01:28:00Z,0000388,00000608,0007.03,0004.62,0002.83,0000.50,0000.77,0000.57,0026.60,0023.25,0018.40,26.4,04.1,0671.5,34.6
2016-07-01T01:29:00Z,0000388,00000608,0008.06,0006.23,0003.08,0001.64,0001.27,0000.50,0031.41,0027.71,0021.93,26.4,04.1,0671.5,34.6
2016-07-01T01:30:00Z,0000388,00000608,0005.21,0003.86,0001.47,0000.79,0000.58,0000.17,0018.12,0016.31,0012.98,26.4,04.1,0671.5,34.6
2016-07-01T01:31:00Z,0000388,00000608,0008.92,0005.91,0003.71,0001.89,0001.08,0000.91,0031.93,0027.86,0022.11,26.4,04.1,0671.5,34.6
2016-07-01T01:32:00Z,0000388,00000608,0004.55,0002.73,0001.92,0000.87,0000.25,0000.36,0014.75,0013.22,0010.29,26.4,04.1,0671.5,34.6
2016-07-01T01:33:00Z,0000388,00000608,0005.86,0003.43,0002.13,0000.65,0000.28,0000.39,0019.54,0017.31,0013.62,26.5,04.0,0671.5,34.6
2016-07-01T01:34:00Z,0000388,00000608,0008.44,0006.12,0003.61,0001.48,0000.91,0000.33,0033.31,0029.39,0023.22,26.5,04.1,0671.5,34.6
2016-07-01T01:35:00Z,0000388,00000608,0007.80,0005.66,0003.45,0000.93,0001.11,0000.96,0027.28,0023.72,0018.66,26.5,04.1,0671.4,34.6
2016-07-01T01:36:00Z,0000388,00000608,0014.06,0009.49,0005.84,0002.53,0001.58,0001.10,0050.82,0044.81,0035.51,26.5,04.2,0671.5,34.6
2016-07-01T01:37:00Z,0000388,00000608,0007.94,0005.10,0002.58,0000.35,0000.80,0000.76,0029.17,0025.90,0020.74,26.5,04.2,0671.4,34.6
2016-07-01T01:38:00Z,0000388,00000608,0006.27,0004.29,0002.44,0001.45,0000.99,0000.16,0019.15,0016.59,0012.50,26.5,04.1,0671.4,34.6
2016-07-01T01:39:00Z,0000388,00000608,0008.52,0005.27,0003.31,0001.78,0000.97,0000.66,0029.99,0026.46,0021.29,26.5,04.1,0671.4,34.6
2016-07-01T01:40:00Z,0000388,00000608,0008.07,0005.32,0003.01,0001.43,0000.94,0000.61,0024.94,0022.19,0017.38,26.4,04.1,0671.4,34.6
2016-07-01T01:41:00Z,0000388,00000608,0006.75,0004.71,0002.28,0001.07,0000.69,0000.46,0023.24,0020.41,0016.01,26.4,04.0,0671.5,34.6
2016-07-01T01:42:00Z,0000388,00000608,0004.72,0003.14,0001.91,0000.88,0000.38,0000.33,0015.87,0013.87,0011.30,26.4,04.0,0671.4,34.6
2016-07-01T01:43:00Z,0000388,00000608,0009.77,0005.71,0004.18,0001.56,0001.19,0000.72,0030.02,0026.32,0020.53,26.4,04.0,0671.4,34.6
2016-07-01T01:44:00Z,0000388,00000608,0014.36,0009.30,0006.06,0002.38,0002.26,0001.37,0052.28,0046.28,0036.73,26.3,04.0,0671.4,34.6
2016-07-01T01:45:00Z,0000388,00000608,0013.77,0009.25,0005.08,0002.85,0001.21,0001.06,0052.20,0046.14,0036.69,26.3,04.0,0671.4,34.6
2016-07-01T01:46:00Z,0000388,00000608,0005.54,0003.96,0002.04,0000.13,0000.78,0000.79,0019.71,0017.21,0013.49,26.3,04.0,0671.4,34.6
2016-07-01T01:47:00Z,0000388,00000608,0010.98,0007.35,0004.16,0001.42,0001.27,0000.84,0038.10,0033.51,0026.39,26.4,04.0,0671.4,34.6
2016-07-01T01:48:00Z,0000388,00000608,0010.44,0006.52,0004.34,0001.90,0000.89,0000.80,0037.49,0032.93,0025.99,26.4,03.9,0671.4,34.6
2016-07-01T01:49:00Z,0000388,00000608,0005.70,0004.61,0002.46,0000.61,0000.81,0000.39,0022.08,0019.53,0015.94,26.4,03.8,0671.5,34.6
2016-07-01T01:50:00Z,0000388,00000608,0004.79,0002.91,0001.36,0000.20,0000.58,0000.36,0014.43,0012.88,0009.74,26.5,03.8,0671.4,34.6
2016-07-01T01:51:00Z,0000388,00000608,0001.89,0000.70,0000.50,0000.05,0000.38,0000.33,0003.86,0003.50,0002.73,26.5,03.7,0671.4,34.6
2016-07-01T01:52:00Z,0000388,00000608,0001.35,0001.27,0000.45,-000.03,0000.47,-000.14,0003.46,0002.97,0002.15,26.4,03.8,0671.5,34.6
2016-07-01T01:53:00Z,0000388,00000608,0001.27,0000.57,0000.22,0000.25,0000.25,-000.09,0001.53,0001.38,0001.32,26.4,03.7,0671.4,34.6
2016-07-01T01:54:00Z,0000388,00000608,0001.43,0000.45,-000.02,0000.00,0000.24,-000.03,0000.50,0000.39,0000.55,26.4,03.6,0671.5,34.6
2016-07-01T01:55:00Z,0000388,00000608,0001.14,0000.78,0000.18,-000.16,0000.08,-000.22,0000.59,0000.56,0000.50,26.3,03.6,0671.5,34.6
2016-07-01T01:56:00Z,0000388,00000608,0001.08,0000.10,0000.03,0000.03,0000.44,0000.27,0000.39,0000.28,0000.03,26.3,03.6,0671.4,34.6
2016-07-01T01:57:00Z,0000388,40000608,,,,,,,,,,,,0671.5,34.6
2016-07-01T01:58:00Z,0000388,60000608,,,,,,,,,,26.2,03.8,0670.6,34.6
2016-07-01T01:59:00Z,0000388,20000608,,,,,,,,,,26.2,03.8,0670.6,34.6
2016-07-01T02:00:00Z,0000388,20000608,,,,,,,,,,26.2,03.6,0670.6,34.6
2016-07-01T02:01:00Z,0000388,20000608,,,,,,,,,,26.2,03.6,0670.6,34.6
2016-07-01T02:02:00Z,0000388,20000608,,,,,,,,,,26.2,03.6,0670.6,34.6
2016-07-01T02:03:00Z,0000388,60000608,,,,,,,,,,26.2,03.6,0670.6,34.6
2016-07-01T02:04:00Z,0000388,40000608,0012.95,0009.41,0005.94,0002.20,0001.99,0001.09,0049.40,0043.40,0034.72,26.3,03.5,0671.5,34.6
2016-07-01T02:05:00Z,0000388,00000608,0019.95,0015.32,0009.72,0003.71,0002.30,0001.97,0080.68,0071.35,0056.45,26.4,03.4,0671.5,34.6
2016-07-01T02:06:00Z,0000388,00000608,0015.64,0012.18,0007.07,0002.91,0002.65,0001.34,0061.98,0054.58,0043.02,26.4,03.5,0671.5,34.6
2016-07-01T02:07:00Z,0000388,00000608,0013.03,0008.89,0006.01,0002.17,0001.55,0001.04,0049.46,0043.80,0034.59,26.4,03.5,0671.5,34.6
2016-07-01T02:08:00Z,0000388,00000608,0015.42,0010.86,0006.45,0002.74,0001.91,0001.21,0055.60,0048.90,0038.68,26.3,03.5,0671.5,34.6
2016-07-01T02:09:00Z,0000388,00000608,0015.37,0010.36,0007.03,0003.22,0002.21,0001.13,0059.43,0052.37,0041.32,26.3,03.5,0671.5,34.6
2016-07-01T02:10:00Z,0000388,00000608,0008.73,0006.20,0003.56,0001.73,0001.24,0000.24,0031.91,0028.37,0022.75,26.3,03.5,0671.5,34.6
2016-07-01T02:11:00Z,0000388,00000608,0001.48,0002.65,0000.43,0000.03,0000.41,0000.00,0009.10,0008.15,0006.43,26.3,03.5,0671.5,34.6
2016-07-01T02:12:00Z,0000388,00000608,0001.65,0001.64,0001.14,0000.50,-000.17,0000.03,0006.34,0005.41,0004.48,26.3,03.5,0671.5,34.6
2016-07-01T02:13:00Z,0000388,00000608,0002.08,0001.94,0000.67,0000.39,0000.23,0000.24,0005.22,0004.69,0003.33,26.3,03.5,0671.5,34.6
2016-07-01T02:14:00Z,0000388,00000608,0007.20,0005.09,0002.57,0001.27,0000.70,0000.65,0021.51,0018.83,0014.81,26.3,03.5,0671.5,34.6
2016-07-01T02:15:00Z,0000388,00000608,0017.91,0013.21,0008.40,0003.16,0002.22,0001.73,0066.76,0058.66,0046.34,26.3,03.4,0671.5,34.5
2016-07-01T02:16:00Z,0000388,00000608,0016.87,0012.38,0007.62,0003.05,0002.40,0001.50,0063.64,0056.67,0045.46,26.3,03.4,0671.6,34.5
2016-07-01T02:17:00Z,0000388,00000608,0000.22,0001.14,0000.05,0000.36,0000.61,-000.17,0003.70,0003.32,0002.53,26.3,03.4,0671.5,34.5
2016-07-01T02:18:00Z,0000388,00000608,0000.72,0000.55,0000.07,0000.03,0000.03,-000.22,0001.19,0001.04,0001.08,26.3,03.5,0671.5,34.5
2016-07-01T02:19:00Z,0000388,00000608,0003.00,0002.80,0000.68,0000.41,0000.70,-000.25,0010.10,0009.00,0007.28,26.3,03.4,0671.5,34.5
2016-07-01T02:20:00Z,0000388,00000608,0005.95,0005.07,0002.05,0000.68,0001.13,0000.00,0022.22,0019.44,0014.94,26.3,03.4,0671.5,34.5
2016-07-01T02:21:00Z,0000388,00000608,0011.03,0008.53,0004.59,0001.84,0001.35,0000.49,0039.50,0034.58,0027.54,26.3,03.4,0671.6,34.5
2016-07-01T02:22:00Z,0000388,00000608,0021.88,0014.44,0008.59,0004.03,0002.54,0001.59,0079.86,0070.32,0055.70,26.3,03.3,0671.6,34.5
2016-07-01T02:23:00Z,0000388,00000608,0019.66,0014.63,0008.30,0003.04,0002.87,0001.70,0077.05,0068.22,0053.78,26.3,03.3,0671.6,34.5
2016-07-01T02:24:00Z,0000388,00000608,0006.96,0005.15,0002.98,0001.09,0001.03,0000.28,0029.33,0025.94,0020.90,26.3,03.3,0671.6,34.5
2016-07-01T02:25:00Z,0000388,00000608,0001.25,0000.73,0000.59,0000.46,-000.05,-000.17,0004.60,0004.04,0003.15,26.3,03.4,0671.6,34.5
2016-07-01T02:26:00Z,0000388,00000608,0000.29,0000.97,-000.31,0000.27,-000.09,0000.02,0000.72,0000.60,0000.62,26.3,03.3,0671.6,34.5
2016-07-01T02:27:00Z,0000388,00000608,0000.52,0000.67,0000.00,-000.06,0000.25,-000.14,0000.81,0000.59,0000.62,26.3,03.3,0671.6,34.5
2016-07-01T02:28:00Z,0000388,00000608,0001.00,0000.23,0000.00,0000.24,-000.17,-000.16,0000.36,0000.63,0000.36,26.2,03.3,0671.7,34.5
2016-07-01T02:29:00Z,0000388,00000608,0000.42,0000.65,0000.68,-000.31,0000.53,0000.09,0001.96,0001.54,0001.31,26.2,03.3,0671.7,34.5
2016-07-01T02:30:00Z,0000388,00000608,0009.52,0006.29,0003.34,0001.45,0001.22,0000.74,0031.15,0027.01,0021.22,26.3,03.3,0671.7,34.6
2016-07-01T02:31:00Z,0000388,00000608,0015.92,0011.08,0006.80,0002.82,0002.16,0001.26,0058.41,0051.44,0040.52,26.3,03.3,0671.7,34.6
2016-07-01T02:32:00Z,0000388,00000608,0012.42,0008.70,0005.72,0002.52,0001.74,0000.68,0049.33,0043.52,0034.63,26.3,03.4,0671.6,34.6
2016-07-01T02:33:00Z,0000388,00000608,0012.18,0009.39,0005.50,0001.95,0001.43,0000.74,0047.44,0042.08,0033.37,26.3,03.3,0671.6,34.6
2016-07-01T02:34:00Z,0000388,00000608,0004.87,0004.49,0002.60,0001.21,0000.66,0000.80,0024.72,0022.12,0017.41,26.3,03.5,0671.5,34.6
2016-07-01T02:35:00Z,0000388,00000608,0000.57,0000.55,0000.43,0000.00,0000.11,-000.27,0002.61,0002.30,0002.01,26.3,03.5,0671.5,34.6
2016-07-01T02:36:00Z,0000388,00000608,0000.20,0000.64,0000.31,0000.09,0000.16,-000.14,0001.06,0001.02,0000.72,26.3,03.7,0671.5,34.6
2016-07-01T02:37:00Z,0000388,00000608,-000.63,0000.76,0000.54,0000.00,0000.13,-000.06,0001.14,0000.77,0000.45,26.3,03.7,0671.5,34.6
2016-07-01T02:38:00Z,0000388,00000608,0001.94,0001.09,0001.13,0000.14,0000.14,0000.09,0004.72,0004.24,0003.54,26.3,03.7,0671.5,34.6
2016-07-01T02:39:00Z,0000388,00000608,0005.80,0004.24,0002.78,0000.49,0000.67,0000.47,0017.35,0015.17,0011.93,26.3,03.6,0671.5,34.6
2016-07-01T02:40:00Z,0000388,00000608,0008.45,0006.19,0003.99,0001.51,0000.96,0000.85,0031.33,0027.54,0021.60,26.3,03.7,0671.5,34.6
2016-07-01T02:41:00Z,0000388,00000608,0011.38,0008.15,0005.15,0002.01,0001.49,0001.13,0042.21,0037.09,0029.48,26.3,03.7,0671.5,34.6
2016-07-01T02:42:00Z,0000388,00000608,0008.87,0006.83,0004.34,0001.86,0001.35,0000.93,0033.82,0030.03,0023.85,26.3,03.6,0671.5,34.6
2016-07-01T02:43:00Z,0000388,00000608,0008.54,0005.22,0003.33,0001.09,0000.89,0000.47,0027.93,0024.62,0019.53,26.3,03.6,0671.5,34.6
2016-07-01T02:44:00Z,0000388,00000608,0007.13,0004.37,0002.87,0001.40,0001.07,0000.24,0023.80,0021.03,0016.45,26.3,03.6,0671.6,34.6
2016-07-01T02:45:00Z,0000388,00000608,0003.58,0003.03,0001.44,-000.06,0000.45,0000.20,0013.51,0011.98,0009.57,26.3,03.5,0671.6,34.6
2016-07-01T02:46:00Z,0000388,00000608,0003.95,0003.22,0002.02,0000.79,0000.44,0000.36,0013.44,0011.56,0009.29,26.3,03.5,0671.6,34.6
2016-07-01T02:47:00Z,0000388,00000608,0011.75,0007.91,0004.82,0001.48,0001.39,0001.59,0038.50,0034.02,0027.04,26.3,03.4,0671.6,34.6
2016-07-01T02:48:00Z,0000388,00000608,0013.89,0011.00,0006.05,0002.52,0001.77,0000.68,0053.18,0047.07,0037.29,26.3,03.3,0671.6,34.6
2016-07-01T02:49:00Z,0000388,00000608,0003.69,0002.15,0001.92,0000.69,0000.27,-000.27,0014.56,0012.91,0010.25,26.3,03.3,0671.6,34.6
2016-07-01T02:50:00Z,0000388,00000608,0002.45,0002.50,0000.92,-000.06,0000.41,-000.55,0009.20,0008.39,0006.44,26.3,03.3,0671.6,34.6
2016-07-01T02:51:00Z,0000388,00000608,0003.05,0002.15,0001.24,0000.91,0000.00,0000.33,0011.56,0010.31,0008.45,26.4,03.3,0671.6,34.6
2016-07-01T02:52:00Z,0000388,00000608,0003.37,0003.49,0001.79,0000.36,0000.27,0000.43,0013.75,0011.86,0009.28,26.3,03.3,0671.6,34.6
2016-07-01T02:53:00Z,0000388,00000608,0007.43,0004.66,0003.10,0000.52,0000.97,0000.30,0024.96,0022.26,0017.50,26.3,03.2,0671.6,34.6
2016-07-01T02:54:00Z,0000388,00000608,0004.78,0003.43,0002.44,0000.85,0000.55,0000.13,0018.49,0016.08,0012.97,26.3,03.2,0671.6,34.6
2016-07-01T02:55:00Z,0000388,00000608,0003.82,0002.03,0001.71,0000.64,0000.45,0000.02,0012.09,0010.82,0008.71,26.3,03.1,0671.6,34.6
2016-07-01T02:56:00Z,0000388,00000608,0000.73,0001.49,0000.88,0000.20,0000.20,0000.17,0003.08,0002.68,0001.90,26.3,03.1,0671.6,34.6
2016-07-01T02:57:00Z,0000388,40000608,,,,,,,,,,,,0671.6,34.6
2016-07-01T02:58:00Z,0000388,60000608,,,,,,,,,,26.2,03.2,0670.7,34.6
2016-07-01T02:59:00Z,0000388,20000608,,,,,,,,,,26.2,03.2,0670.7,34.6
2016-07-01T03:00:00Z,0000388,20000608,,,,,,,,,,26.2,03.2,0670.7,34.6
2016-07-01T03:01:00Z,0000388,20000608,,,,,,,,,,26.2,03.2,0670.7,34.6
2016-07-01T03:02:00Z,0000388,20000608,,,,,,,,,,26.2,03.2,0670.7,34.6
2016-07-01T03:03:00Z,0000388,60000608,,,,,,,,,,26.2,03.2,0670.7,34.6
2016-07-01T03:04:00Z,0000388,40000608,0010.76,0007.52,0005.11,0002.25,0001.41,0001.20,0038.61,0034.35,0027.22,26.3,03.0,0671.5,34.6
2016-07-01T03:05:00Z,0000388,00000608,0005.01,0003.25,0002.35,0000.99,0000.75,0000.36,0018.85,0016.66,0013.09,26.3,03.1,0671.6,34.6
2016-07-01T03:06:00Z,0000388,00000608,0004.97,0004.39,0001.85,0000.36,0000.92,0000.22,0015.87,0013.98,0011.18,26.3,03.1,0671.6,34.6
2016-07-01T03:07:00Z,0000388,00000608,0007.15,0005.39,0003.51,0001.67,0001.44,0000.61,0024.49,0021.88,0017.03,26.3,03.0,0671.5,34.6
2016-07-01T03:08:00Z,0000388,00000608,0008.62,0006.80,0004.12,0001.56,0001.16,0000.88,0027.74,0024.18,0019.48,26.3,03.0,0671.6,34.6
2016-07-01T03:09:00Z,0000388,00000608,0007.87,0005.99,0004.32,0000.69,0000.83,0000.63,0025.13,0022.31,0017.53,26.3,03.0,0671.6,34.6
2016-07-01T03:10:00Z,0000388,00000608,0012.85,0009.61,0005.56,0002.15,0001.86,0001.37,0044.42,0039.08,0031.29,26.3,03.0,0671.6,34.6
2016-07-01T03:11:00Z,0000388,00000608,0014.80,0011.18,0006.50,0003.05,0002.13,0000.94,0056.31,0049.97,0039.73,26.3,02.9,0671.6,34.6
2016-07-01T03:12:00Z,0000388,00000608,0010.12,0006.68,0004.41,0001.87,0001.32,0000.69,0035.10,0030.93,0024.40,26.3,02.8,0671.6,34.6
2016-07-01T03:13:00Z,0000388,00000608,0006.54,0004.33,0003.01,0000.76,0001.05,0000.63,0021.56,0019.05,0015.01,26.3,02.9,0671.6,34.6
2016-07-01T03:14:00Z,0000388,00000608,0001.70,0001.12,0000.91,0000.28,0000.30,0000.46,0005.20,0004.93,0004.14,26.3,02.9,0671.6,34.6
2016-07-01T03:15:00Z,0000388,00000608,0001.84,0001.34,0000.82,0000.02,0000.39,0000.02,0003.74,0003.17,0002.55,26.3,02.9,0671.6,34.6
2016-07-01T03:16:00Z,0000388,00000608,0001.96,0001.12,0000.88,0000.24,0000.28,0000.16,0003.38,0003.15,0002.30,26.3,02.8,0671.6,34.6
2016-07-01T03:17:00Z,0000388,00000608,0000.11,0001.09,0000.05,-000.33,-000.05,-000.33,0000.82,0000.52,0000.47,26.3,02.9,0671.6,34.6
2016-07-01T03:18:00Z,0000388,00000608,0002.13,0001.92,0001.27,0000.63,0000.39,-000.09,0007.49,0006.54,0005.37,26.3,02.9,0671.6,34.6
2016-07-01T03:19:00Z,0000388,00000608,0002.59,0001.07,0000.80,-000.14,0000.11,0000.02,0005.16,0004.66,0003.52,26.3,02.9,0671.6,34.6
2016-07-01T03:20:00Z,0000388,00000608,0000.51,0000.68,0000.37,-000.03,0000.20,0000.08,0000.52,0000.55,0000.53,26.3,02.9,0671.6,34.6
2016-07-01T03:21:00Z,0000388,00000608,-000.15,0000.67,0000.19,0000.05,0000.13,-000.05,0000.57,0000.49,0000.61,26.3,02.8,0671.6,34.6
2016-07-01T03:22:00Z,0000388,00000608,0000.59,0000.53,-000.22,0000.06,0000.47,-000.19,0001.02,0000.93,0000.43,26.3,02.9,0671.6,34.6
2016-07-01T03:23:00Z,0000388,00000608,0000.94,0001.12,0000.94,0000.14,0000.19,0000.24,0001.92,0001.62,0001.34,26.3,03.0,0671.6,34.6
2016-07-01T03:24:00Z,0000388,00000608,0001.37,0000.56,0000.56,0000.53,0000.28,-000.38,0000.45,0000.50,0000.71,26.3,03.0,0671.6,34.6
2016-07-01T03:25:00Z,0000388,00000608,0000.19,0000.80,0000.22,0000.00,0000.47,-000.06,0000.48,0000.37,0000.06,26.3,02.9,0671.6,34.6
2016-07-01T03:26:00Z,0000388,00000608,0000.80,0000.90,0000.22,0000.02,0000.20,-000.19,0000.28,0000.47,0000.44,26.3,02.9,0671.6,34.6
2016-07-01T03:27:00Z,0000388,00000608,0000.49,0000.54,0000.32,-000.03,0000.17,0000.14,0000.55,0000.40,0000.29,26.3,02.9,0671.6,34.6
2016-07-01T03:28:00Z,0000388,00000608,0000.51,0000.91,-000.24,-000.25,-000.08,-000.55,0000.32,0000.32,0000.41,26.3,02.9,0671.6,34.6
2016-07-01T03:29:00Z,0000388,00000608,0000.49,0000.55,0000.45,-000.64,0000.39,0000.41,0000.33,0000.27,-000.04,26.3,02.8,0671.6,34.6
2016-07-01T03:30:00Z,0000388,00000608,0000.22,0000.00,0000.43,-000.30,0000.17,0000.20,0000.23,0000.08,0000.24,26.3,02.9,0671.6,34.6
2016-07-01T03:31:00Z,0000388,00000608,0000.71,0001.10,0000.15,-000.42,0000.16,-000.20,0000.07,0000.10,0000.02,26.3,02.8,0671.6,34.6
2016-07-01T03:32:00Z,0000388,00000608,-000.20,0000.92,0000.41,0000.42,0000.09,0000.25,0000.57,0000.23,0000.80,26.3,02.7,0671.6,34.6
2016-07-01T03:33:00Z,0000388,00000608,0001.18,0001.40,0000.55,0000.38,0000.11,0000.00,0000.12,0000.58,0000.05,26.4,02.7,0671.6,34.6
2016-07-01T03:34:00Z,0000388,00000608,0000.76,0000.48,0000.23,0000.58,0000.31,-000.19,0000.56,0000.31,0000.35,26.4,02.7,0671.6,34.6
2016-07-01T03:35:00Z,0000388,00000608,0000.13,0000.48,0000.20,0000.38,0000.39,0000.33,0000.11,0000.31,0000.09,26.5,02.8,0671.6,34.6
2016-07-01T03:36:00Z,0000388,00000608,0000.65,0001.31,0000.29,0000.17,0000.16,0000.06,0000.37,0000.32,0000.42,26.5,02.7,0671.6,34.6
2016-07-01T03:37:00Z,0000388,00000608,0000.19,0000.04,-000.06,-000.54,0000.17,0000.02,0000.62,0000.73,0000.35,26.5,02.7,0671.6,34.6